Glens Falls, NY

7:06 PM EST on November 14, 2019 (GMT -0500)
Bennett Memorial

Weather History for KGFL - September, 2019

Change the Weather History Date:

Tuesday, September 10, 2019

  Actual Average Record
Temperature  
Mean Temperature 58 °F 61 °F  
Max Temperature 74 °F 73 °F 91 °F (2002)
Min Temperature 42 °F 49 °F 33 °F (1956)
Degree Days  
Heating Degree Days 7 5  
Month to date heating degree days 51 41  
Since 1 July heating degree days 79 107  
Cooling Degree Days 0 1  
Month to date cooling degree days 3 15  
Year to date cooling degree days 398 342  
Growing Degree Days 8 (Base 50)    
Moisture  
Dew Point 50 °F    
Average Humidity 81    
Maximum Humidity 100    
Minimum Humidity 61    
Precipitation  
Precipitation 0.06 in 0.11 in 2.23 in (1929)
Month to date precipitation 0.97 1.03  
Year to date precipitation 29.76 26.84  
Sea Level Pressure  
Sea Level Pressure 30.31 in    
Wind  
Wind Speed 5 mph (South)    
Max Wind Speed 15 mph    
Max Gust Speed 19 mph    
Visibility 6 miles    
Events Fog , Rain    
T = Trace of Precipitation, MM = Missing Value Source: NWS Daily Summary

Daily Weather History Graph

Daily Weather History Graph

Search for Another Location

Airport or City:

Astronomy

Sep. 10, 2019 Rise Set
Actual Time 6:28 AM EDT 7:14 PM EDT
Civil Twilight 5:59 AM EDT 7:42 PM EDT
Nautical Twilight 5:24 AM EDT 8:17 PM EDT
Astronomical Twilight 4:49 AM EDT 8:52 PM EDT
Moon 5:55 PM EDT (9/10) 2:44 AM EDT (9/10)
Length of Visible Light 13h 43m
Length of Day
12h 45m
Waxing Gibbous, 89% of the Moon is Illuminated
Sep 10
Waxing Gibbous
Sep 14
Full
Sep 21
Last Quarter
Sep 28
New
Oct 5
First Quarter

Hourly Weather History & Observations

Time (EDT) Temp. Dew Point Humidity Pressure Visibility Wind Dir Wind Speed Gust Speed Precip Events Conditions
12:08 AM 48.0 °F 45.0 °F 89% 30.33 in 10.0 mi Calm Calm - N/A   Clear
12:18 AM 46.9 °F 45.0 °F 93% 30.33 in 1.5 mi Calm Calm - N/A   Clear
12:37 AM 46.0 °F 45.0 °F 96% 30.33 in 0.5 mi Calm Calm - N/A Fog Fog
12:46 AM 46.0 °F 45.0 °F 96% 30.33 in 2.0 mi Calm Calm - N/A   Clear
12:53 AM 46.0 °F 44.1 °F 93% 30.34 in 10.0 mi Calm Calm - N/A   Clear
1:13 AM 46.0 °F 45.0 °F 96% 30.33 in 1.8 mi Calm Calm - N/A   Clear
1:21 AM 46.0 °F 44.1 °F 93% 30.33 in 3.0 mi Calm Calm - N/A   Clear
1:28 AM 45.0 °F 44.1 °F 97% 30.33 in 1.5 mi Calm Calm - N/A   Clear
1:39 AM 45.0 °F 44.1 °F 97% 30.33 in 0.8 mi Calm Calm - N/A   Clear
1:53 AM 45.0 °F 44.1 °F 97% 30.34 in 0.5 mi Calm Calm - N/A Fog Fog
2:15 AM 45.0 °F 43.0 °F 93% 30.33 in 3.0 mi Calm Calm - N/A   Clear
2:27 AM 44.1 °F 44.1 °F 100% 30.33 in 1.8 mi Calm Calm - N/A   Mostly Cloudy
2:53 AM 46.9 °F 45.0 °F 93% 30.35 in 10.0 mi Calm Calm - N/A   Mostly Cloudy
3:41 AM 45.0 °F 44.1 °F 97% 30.33 in 1.8 mi Calm Calm - N/A   Partly Cloudy
3:50 AM 44.6 °F 44.6 °F 100% 30.33 in 3.0 mi Calm Calm - N/A   Clear
3:53 AM 45.0 °F 43.0 °F 93% 30.34 in 1.5 mi Calm Calm - N/A   Clear
4:20 AM 45.0 °F 44.1 °F 97% 30.34 in 0.5 mi Calm Calm - N/A Fog Fog
4:38 AM 44.1 °F 43.0 °F 96% 30.34 in 2.5 mi Calm Calm - N/A   Partly Cloudy
4:45 AM 44.1 °F 43.0 °F 96% 30.34 in 10.0 mi Calm Calm - N/A   Partly Cloudy
4:53 AM 44.1 °F 43.0 °F 96% 30.35 in 2.5 mi Calm Calm - N/A   Partly Cloudy
5:01 AM 45.0 °F 43.0 °F 93% 30.34 in 1.0 mi Calm Calm - N/A   Partly Cloudy
5:23 AM 44.1 °F 42.1 °F 93% 30.35 in 0.8 mi Calm Calm - N/A   Partly Cloudy
5:32 AM 44.1 °F 43.0 °F 96% 30.34 in 2.0 mi Calm Calm - N/A   Partly Cloudy
5:43 AM 43.0 °F 42.1 °F 97% 30.35 in 0.8 mi Calm Calm - N/A   Partly Cloudy
5:53 AM 44.1 °F 42.1 °F 93% 30.37 in 0.8 mi Calm Calm - N/A   Scattered Clouds
6:02 AM 43.0 °F 43.0 °F 100% 30.35 in 1.2 mi Calm Calm - N/A   Scattered Clouds
6:32 AM 43.0 °F 42.1 °F 97% 30.36 in 3.0 mi Calm Calm - N/A   Partly Cloudy
6:53 AM 43.0 °F 42.1 °F 97% 30.38 in 2.0 mi Calm Calm - N/A   Partly Cloudy
6:57 AM 43.0 °F 42.1 °F 97% 30.36 in 0.8 mi Calm Calm - N/A   Scattered Clouds
7:05 AM 44.1 °F 43.0 °F 96% 30.37 in 2.0 mi Calm Calm - N/A   Mostly Cloudy
7:12 AM 46.0 °F 45.0 °F 96% 30.36 in 10.0 mi Calm Calm - N/A   Mostly Cloudy
7:53 AM 50.0 °F 48.0 °F 93% 30.37 in 10.0 mi Calm Calm - N/A   Clear
8:53 AM 55.9 °F 50.0 °F 80% 30.37 in 10.0 mi East 3.5 mph - N/A   Partly Cloudy
9:53 AM 60.1 °F 51.1 °F 72% 30.37 in 10.0 mi Calm Calm - N/A   Partly Cloudy
10:53 AM 64.0 °F 51.1 °F 63% 30.35 in 10.0 mi SSE 8.1 mph - N/A   Clear
11:53 AM 66.9 °F 55.0 °F 66% 30.33 in 10.0 mi South 8.1 mph - N/A   Mostly Cloudy
12:53 PM 70.0 °F 57.0 °F 63% 30.30 in 10.0 mi Variable 5.8 mph - N/A   Clear
1:53 PM 73.0 °F 59.0 °F 61% 30.27 in 10.0 mi South 11.5 mph - N/A   Mostly Cloudy
2:53 PM 73.0 °F 61.0 °F 66% 30.25 in 10.0 mi South 9.2 mph - N/A   Mostly Cloudy
3:53 PM 72.0 °F 61.0 °F 68% 30.23 in 10.0 mi South 12.7 mph - N/A   Overcast
4:29 PM 72.0 °F 62.1 °F 71% 30.22 in 10.0 mi South 10.4 mph 18.4 mph N/A   Overcast
4:51 PM 73.4 °F 62.6 °F 69% 30.22 in 10.0 mi South 10.4 mph - N/A   Mostly Cloudy
4:53 PM 73.0 °F 63.0 °F 71% 30.22 in 10.0 mi South 10.4 mph - N/A   Mostly Cloudy
5:53 PM 72.0 °F 63.0 °F 73% 30.22 in 10.0 mi South 9.2 mph - N/A   Mostly Cloudy
6:53 PM 71.1 °F 62.1 °F 73% 30.20 in 10.0 mi SSW 4.6 mph - N/A   Partly Cloudy
7:53 PM 69.1 °F 63.0 °F 81% 30.21 in 3.0 mi SSE 4.6 mph - 0.04 in Rain Heavy Rain
8:53 PM 66.9 °F 64.0 °F 90% 30.18 in 10.0 mi South 4.6 mph - 0.02 in   Clear
9:53 PM 66.9 °F 64.0 °F 90% 30.16 in 10.0 mi SW 3.5 mph - N/A   Overcast
10:53 PM 68.0 °F 64.0 °F 87% 30.14 in 10.0 mi SSW 5.8 mph - N/A   Overcast
11:53 PM 68.0 °F 63.0 °F 84% 30.14 in 10.0 mi SSW 8.1 mph - N/A   Scattered Clouds